This is the latest recevied weather packets stored in our database for station/object W6JCZ-13. If no packets are shown the sender has not sent any weather packets the latest 10 day(s).
| Time | Temp. | Humidity | Pressure | Rain* | Wind** | Luminosity | Snow |
|---|---|---|---|---|---|---|---|
| 1777824916 | 16.67° C | 74% | 1009.2 hPa | 0 mm | - | - | - |
| 1777824316 | 16.11° C | 77% | 1009.1 hPa | 0 mm | - | - | - |
| 1777823716 | 15.56° C | 78% | 1009.1 hPa | 0 mm | - | - | - |
| 1777823116 | 15° C | 79% | 1009.1 hPa | 0 mm | - | - | - |
| 1777822516 | 14.44° C | 81% | 1009.1 hPa | 0 mm | - | - | - |
| 1777821916 | 13.89° C | 83% | 1009.1 hPa | 0 mm | - | - | - |
| 1777821316 | 13.89° C | 84% | 1009.1 hPa | 0 mm | - | - | - |
| 1777820716 | 13.33° C | 85% | 1009 hPa | 0 mm | - | - | - |
| 1777820116 | 12.78° C | 86% | 1008.7 hPa | 0 mm | - | - | - |
| 1777819516 | 12.22° C | 87% | 1008.6 hPa | 0 mm | - | - | - |
| 1777818916 | 12.22° C | 87% | 1008.5 hPa | 0 mm | - | - | - |
| 1777818316 | 12.22° C | 88% | 1008.4 hPa | 0 mm | - | - | - |
| 1777817716 | 11.67° C | 88% | 1008.2 hPa | 0 mm | - | - | - |
| 1777817115 | 11.67° C | 89% | 1008.2 hPa | 0 mm | - | - | - |
| 1777816515 | 11.11° C | 89% | 1008.1 hPa | 0 mm | - | - | - |
| 1777815918 | 11.11° C | 88% | 1008 hPa | 0 mm | - | - | - |
| 1777815318 | 11.11° C | 88% | 1008 hPa | 0 mm | - | - | - |
| 1777814717 | 11.11° C | 88% | 1007.8 hPa | 0 mm | - | - | - |
| 1777814117 | 11.11° C | 88% | 1007.7 hPa | 0 mm | - | - | - |
| 1777813517 | 11.11° C | 88% | 1007.6 hPa | 0 mm | - | - | - |
| 1777812918 | 11.11° C | 88% | 1007.2 hPa | 0 mm | - | - | - |
| 1777812318 | 11.11° C | 87% | 1007.3 hPa | 0 mm | - | - | - |
| 1777811718 | 11.11° C | 87% | 1007.3 hPa | 0 mm | - | - | - |
| 1777811117 | 11.11° C | 87% | 1007.3 hPa | 0 mm | - | - | - |
| 1777810518 | 11.11° C | 88% | 1007.3 hPa | 0 mm | - | - | - |
* Rain latest hour (hover to see other rain measurements)
** Current wind speed in m/s (hover to see current wind gust speed)